sat.trackr.live / text

‹ back to catalog

STARLINK-33563

NORAD 62284 · 2024-237T

PAYLOAD ACTIVE UNKNOWN

§ Identity

Operator
Country
US
Launch date
2024-12-08
Launch site
AFETR
Launch vehicle
Mass (kg)
RCS (m²)

Purposes: comms

External: N2YO · Heavens-Above · Gunter

§ Orbital elements

Epoch: 2026-09-21T05:06:00.010368Z

Period
94.27 min
Inclination
42.9999°
Eccentricity
0.0001659
Mean motion
15.27598820 rev/d
Perigee alt
481.9 km
Apogee alt
484.1 km
Semi-major
6,861.1 km
B*
4.6793e-4
RAAN
192.2318°
Arg perigee
265.2905°
Mean anomaly
94.7757°
Rev number
10,109

§ Raw data

STARLINK-335631 62284U 24237T   26264.21250012  .00012644  00000+0  46793-3 0  99912 62284  42.9999 192.2318 0001659 265.2905  94.7757 15.27598820101099

JSON: /api/v1/satellites/62284 · /tle

For live sub-satellite position, see the globe view (requires WebGL).

§ Visibility from observer

Set your observer location to see the next 7 days of passes ≥ 10°. The values pass through the URL so the page stays shareable.

No JS? Fill the form by hand. The geolocation button needs JavaScript.